Content
SEND FEEDBACK

Daily
Averages
Monthly
Summary
United States of America

BELLEVILLE, KANSAS


Home > North America > United States > Kansas
Elevation: 1528 feet     Latitude: 39 50N     Longitude: 097 38W

WEATHER
 
SELECT A DAY
Number of Records: 199,893;   Date Range: 1/1/95 - 7/22/14
 
SHARE

PRINT THIS DATA

[ ← Previous Day ]
WEATHER ALMANAC - FEBRUARY 13, 2013
[ Next Day → ]
[ °C ]   °F
Weather ElementAverageHighLow
Temperature38.9 °F54 °F (2:55 pm)26.1 °F (6:55 am)
Dewpoint21.1 °F24.1 °F (11:55 pm)16 °F (1:55 am)
Humidity51.8 %75 % (6:55 am)28 % (3:55 pm)
Barometer29.89 in29.97 in (1:55 am)29.82 in (3:55 pm)
Wind Speed10.3 mph17.3 mph (3:55 pm)
Wind Gust25.3 mph (3:55 pm)
Weather ElementAverage
Visibility10 mi
Wind DirectionW (268.3 °)

Weather ElementTotal
Precipitation---
Heating Degree Days25 (Base 65)
Averaged from 23 records on February 13, 2013
WEATHER CONDITIONS BREAKOUT
WIND DIRECTION BREAKOUT
WEATHER BY HOUR - FEBRUARY 13, 2013
[ °C ]   °F
Local TimeTemperatureDewpointHumidityBarometerVisibilityWind DirectionWind SpeedGust SpeedPrecipitationEventsConditions
1:55 AM28.0 °F16.0 °F61 %29.97 in10.0 miWest (270°)8.1 mphClear
2:55 AM27.0 °F17.1 °F66 %29.96 in10.0 miWest (270°)8.1 mphClear
3:55 AM27.0 °F18.0 °F69 %29.95 in10.0 miWest (260°)9.2 mphClear
4:55 AM27.0 °F18.0 °F69 %29.94 in10.0 miWest (260°)10.4 mphClear
5:55 AM27.0 °F18.0 °F69 %29.92 in10.0 miWest (260°)6.9 mphClear
6:55 AM26.1 °F19.0 °F75 %29.94 in10.0 miWest (270°)12.7 mphClear
7:55 AM27.0 °F19.0 °F72 %29.96 in10.0 miWest (270°)10.4 mphClear
8:55 AM30.9 °F21.9 °F69 %29.94 in10.0 miWest (270°)13.8 mphClear
9:55 AM35.1 °F23.0 °F61 %29.94 in10.0 miWest (270°)11.5 mphClear
10:55 AM39.9 °F23.0 °F51 %29.93 in10.0 miWest (280°)9.2 mphClear
11:55 AM46.0 °F23.0 °F40 %29.91 in10.0 miWest (280°)13.8 mphClear
12:55 PM48.9 °F23.0 °F36 %29.88 in10.0 miWSW (250°)10.4 mphClear
1:55 PM52.0 °F21.0 °F30 %29.85 in10.0 miWSW (250°)11.5 mph23.0 mphClear
2:55 PM54.0 °F21.9 °F29 %29.83 in10.0 miWest (280°)12.7 mph20.7 mphClear
3:55 PM54.0 °F21.0 °F28 %29.82 in10.0 miWNW (300°)17.3 mph25.3 mphClear
4:55 PM54.0 °F21.9 °F29 %29.82 in10.0 miNW (310°)11.5 mphClear
5:55 PM48.9 °F23.0 °F36 %29.83 in10.0 miWest (280°)9.2 mphClear
6:55 PM45.0 °F21.9 °F40 %29.84 in10.0 miWSW (240°)8.1 mphClear
7:55 PM43.0 °F23.0 °F45 %29.85 in10.0 miWSW (250°)9.2 mphClear
8:55 PM39.9 °F21.9 °F49 %29.86 in10.0 miWest (270°)5.8 mphClear
9:55 PM39.0 °F23.0 °F53 %29.86 in10.0 miWest (260°)8.1 mphClear
10:55 PM37.9 °F23.0 °F55 %29.87 in10.0 miWest (260°)9.2 mphClear
11:55 PM37.0 °F24.1 °F59 %29.88 in10.0 miWest (260°)10.4 mphPartly Cloudy
Hourly data recorded from KCNK, located miles away from Belleville, Kansas







STORIES FROM OUR PARTNERS